Flag Weather past 2 weeks in Tacoma, Washington, U.S.A.

Now
48 °F

Overcast.


Feels Like: 45 °F
Forecast: 44 / 51 °F
Wind: 6 mph from South

Location: Tacoma Narrows Airport

Current Time: Nov 21, 2014 at 4:33:58 AM

Latest Report: Nov 21, 2014 at 3:53 AM


Visibility: 10 mi

Pressure: 29.85 "Hg

Humidity: 86%

Dew point: 44 °F

Location of TacomaLocation

Historic Weather in Tacoma — Graph

°F

Tacoma temperature yesterday

Maximum temperature yesterday: 49 °F (at 1:53 PM)
Minimum temperature yesterday: 41 °F (at 12:53 AM)
Average temperature yesterday: 47 °F

Past Weeks' High & Low Weather Summary

 TemperatureHumidityPressure
High59 °F (Nov 6, 9:53 AM)100% (Nov 6, 2:53 AM)30.53 "Hg (Nov 6, 2:53 AM)
Low29 °F (Nov 16, 6:53 AM)21% (Nov 12, 12:53 PM)29.81 "Hg (Nov 6, 6:53 AM)
Average43 °F67%30.16 "Hg
* Reported Nov 6 2:53 AM — Nov 21 2:53 AM, Tacoma, Weather by CustomWeather, © 2014

Note: Actual official high and low records may vary slightly from our data, if they occured in-between our weather recording intervals... More about our weather records

Advertising

Tacoma weather history for previous 24 hours

 ConditionsComfort  
Time TempWeatherWind HumidityBarometerVisibility
2:53 AM
Nov 21
47 °FMostly cloudy.No wind93%29.88 "Hg10 mi
1:53 AM48 °FLight rain. Mostly cloudy.No wind89%29.87 "Hg10 mi
12:53 AM48 °FOvercast.No wind89%29.89 "Hg10 mi
11:53 PM
Nov 20
48 °FOvercast.3 mph93%29.90 "Hg10 mi
10:53 PM48 °FOvercast.5 mph93%29.92 "Hg10 mi
9:53 PM48 °FMostly cloudy.5 mph93%29.93 "Hg10 mi
8:53 PM47 °FMostly cloudy.3 mph97%29.93 "Hg7 mi
7:53 PM48 °FOvercast.No wind93%29.93 "Hg9 mi
6:53 PM49 °FFog.No wind93%29.94 "Hg4 mi
5:53 PM48 °FLight rain. Fog.No wind93%29.94 "Hg4 mi
4:53 PM48 °FOvercast.No wind93%29.95 "Hg10 mi
3:53 PM49 °FMostly cloudy.No wind90%29.95 "Hg10 mi
2:53 PM49 °FLight rain. Fog.No wind90%29.96 "Hg6 mi
1:53 PM49 °FOvercast.5 mph90%29.96 "Hg10 mi
12:53 PM48 °FMostly cloudy.3 mph86%29.96 "Hg10 mi
11:53 AM48 °FOvercast.7 mph89%29.98 "Hg10 mi
10:53 AM48 °FLight rain. More clouds than sun.3 mph86%29.98 "Hg10 mi
9:53 AM48 °FBroken clouds.3 mph89%29.99 "Hg10 mi
8:53 AM47 °FOvercast.No wind90%29.98 "Hg10 mi
7:53 AM46 °FMore clouds than sun.No wind93%29.98 "Hg10 mi
6:53 AM46 °FMostly cloudy.5 mph93%29.98 "Hg10 mi
5:53 AM45 °FMostly cloudy.8 mph90%29.97 "Hg10 mi
5:02 AM45 °FOvercast.8 mph90%29.95 "Hg10 mi
4:53 AM44 °FPassing clouds.8 mph89%29.96 "Hg10 mi
Weather by CustomWeather, © 2014

See weather overviewHow to use our weather pages